Location: San Antonio
(29.4240°N, 98.4930°W)
Time: 18:10:54
(UTC-05:00)

ISS - All Passes

Search period start: 04 September 2015 00:00
Search period end: 14 September 2015 00:00
Orbit: 400 x 402 km, 51.6° (Epoch: 04 September)

Date Brightness Start Highest point End Pass type
(mag) Time Alt. Az. Time Alt. Az. Time Alt. Az.
04 Sep - 06:56:54 10° S 06:59:41 27° SE 07:02:30 10° ENE daylight
04 Sep - 08:33:43 10° W 08:36:06 18° NW 08:38:27 10° N daylight
04 Sep - 15:05:25 10° NNW 15:08:00 22° NE 15:10:36 10° E daylight
04 Sep - 16:41:47 10° WNW 16:44:21 21° SW 16:46:51 10° S daylight
05 Sep - 06:05:19 10° SSE 06:06:29 12° SE 06:07:48 10° ESE visible
05 Sep - 07:39:35 10° WSW 07:42:39 37° NW 07:45:43 10° NNE daylight
05 Sep - 14:13:15 10° NNE 14:14:28 12° NE 14:15:45 10° ENE daylight
05 Sep - 15:47:58 10° NW 15:51:07 52° SW 15:54:16 10° SSE daylight
06 Sep - 06:46:04 10° SW 06:49:18 87° SE 06:52:34 10° NE visible
06 Sep - 14:54:37 10° NW 14:57:49 58° NE 15:01:01 10° SE daylight
07 Sep - 05:53:05 10° SSW 05:56:02 33° SE 05:59:01 10° ENE visible
07 Sep - 07:30:24 10° WNW 07:32:32 16° NW 07:34:36 10° N daylight
07 Sep - 14:01:38 10° NNW 14:04:24 25° NE 14:07:11 10° E daylight
07 Sep - 15:38:23 10° W 15:40:41 18° SW 15:42:54 10° S daylight
08 Sep - 05:01:01 10° SSE 05:02:48 14° SE 05:04:41 10° E visible
08 Sep - 06:36:04 10° WSW 06:39:01 31° NW 06:41:58 10° NNE visible
08 Sep - 13:09:11 10° N 13:10:51 13° NE 13:12:36 10° ENE daylight
08 Sep - 14:44:21 10° WNW 14:47:27 42° SW 14:50:30 10° SSE daylight
09 Sep - 05:42:23 10° SW 05:45:37 75° NW 05:48:52 10° NE visible
09 Sep - 13:50:53 10° NW 13:54:07 73° NE 13:57:21 10° SE daylight
10 Sep - 04:49:14 10° SSW 04:52:17 40° SE 04:55:23 10° ENE visible
10 Sep - 06:27:03 10° WNW 06:28:52 14° NW 06:30:37 10° N visible
10 Sep - 12:57:47 10° NNW 13:00:42 30° NE 13:03:37 10° ESE daylight
10 Sep - 14:34:59 10° W 14:36:56 15° SW 14:38:45 10° SSW daylight
11 Sep - 03:56:51 10° S 03:59:01 17° SE 04:01:17 10° E night (unlit)
11 Sep - 05:32:29 10° W 05:35:18 26° NW 05:38:06 10° NNE visible
11 Sep - 12:05:08 10° N 12:07:09 15° NE 12:09:14 10° ENE daylight
11 Sep - 13:40:41 10° WNW 13:43:39 34° SW 13:46:37 10° SSE daylight
12 Sep - 04:38:37 10° SW 04:41:50 60° NW 04:45:03 10° NE visible
12 Sep - 12:47:05 10° NW 12:50:20 90° WSW 12:53:34 10° SE daylight
13 Sep - 03:45:19 10° SSW 03:48:28 51° SE 03:51:38 10° NE night (unlit)
13 Sep - 05:23:42 10° WNW 05:25:07 12° NW 05:26:26 10° N visible
13 Sep - 11:53:53 10° NNW 11:56:54 36° NE 11:59:56 10° ESE daylight
13 Sep - 13:31:40 10° W 13:33:05 12° SW 13:34:21 10° SSW daylight
